Tracking 35331 objects as of 16-Sep-2026
HD Live streaming from Space Station
objects crossing your sky now

STARLINK-30591

Track STARLINK-30591 now!
10-day predictions
STARLINK-30591 is classified as:


NORAD ID: 58088
Int'l Code: 2023-160P
Launch date: October 18, 2023
Source: United States (US)
Launch site: AIR FORCE EASTERN TEST RANGE (AFETR)
Your satellite tracking list
Your tracking list is empty




NASA's NSSDC Master Catalog

Two Line Element Set (TLE):
1 58088U 23160P   26258.79613692  .00001217  00000-0  53758-4 0  9990
2 58088  43.0023  83.9605 0001672 263.2867  96.7794 15.27578304162029
Source of the keplerian elements: AFSPC